Location: Dompnac
(44.5644°N, 4.1026°E)
Time: 11:47:16
(UTC+00:00)

Cosmos 1891 Rocket - Pass Details

Date: 25 January 2021
Orbit: 934 x 1018 km, 82.9° (Epoch: 24 February)

Event Time Altitude Azimuth Distance (km) Brightness Sun altitude
Rises 03:10:56 0° 148° (SSE) 3,649 7.7 -42.2°
Reaches altitude 10° 03:13:55 10° 135° (SE) 2,692 7.0 -41.7°
Maximum altitude 03:18:40 24° 84° (E) 1,857 6.4 -40.9°
Drops below altitude 10° 03:23:23 10° 33° (NNE) 2,669 7.2 -40.1°
Sets 03:26:18 0° 20° (NNE) 3,610 7.8 -39.6°
